Hourly Weather Abay

Today, 28 February, Sunday

Time Temperature Precipitation Wind Pressure Humidity
00:00 -3°C° 0 mm 2 mps 724 mmHg 53%
01:00 -3°C° 0 mm 2 mps 724 mmHg 51%
02:00 -3°C° 0 mm 2 mps 723 mmHg 48%
03:00 -3°C° 0 mm 2 mps 723 mmHg 47%
04:00 -3°C° 0 mm 2 mps 723 mmHg 45%
05:00 -1°C° 0 mm 1 mps 723 mmHg 43%
06:00 0°C° 0 mm 1 mps 723 mmHg 41%
07:00 0°C° 0 mm 1 mps 723 mmHg 38%
08:00 -1°C° 0 mm 2 mps 723 mmHg 36%
09:00 +3°C° 0 mm 1 mps 722 mmHg 32%
10:00 +5°C° 0 mm 1 mps 722 mmHg 28%
11:00 +7°C° 0 mm 1 mps 722 mmHg 24%
12:00 +8°C° 0 mm 1 mps 721 mmHg 23%
13:00 +8°C° 0 mm 1 mps 721 mmHg 23%
14:00 +9°C° 0 mm 1 mps 720 mmHg 22%
15:00 +9°C° 0 mm 1 mps 720 mmHg 25%
16:00 +9°C° 0 mm 1 mps 720 mmHg 27%
17:00 +8°C° 0 mm 1 mps 719 mmHg 31%
18:00 +7°C° 0 mm 1 mps 719 mmHg 36%
19:00 +5°C° 0 mm 1 mps 719 mmHg 41%
20:00 +4°C° 0 mm 1 mps 719 mmHg 47%
21:00 +4°C° 0 mm 1 mps 719 mmHg 46%
22:00 +3°C° 0 mm 1 mps 719 mmHg 45%
23:00 +3°C° 0 mm 1 mps 719 mmHg 45%

Tomorrow, 1 March, Monday

Time Temperature Precipitation Wind Pressure Humidity
00:00 +3°C° 0 mm 1 mps 718 mmHg 44%
01:00 +3°C° 0 mm 1 mps 718 mmHg 43%
02:00 +3°C° 0 mm 1 mps 718 mmHg 42%
03:00 +3°C° 0 mm 1 mps 718 mmHg 41%
04:00 +3°C° 0 mm 1 mps 718 mmHg 41%
05:00 +2°C° 0 mm 1 mps 718 mmHg 41%
06:00 +3°C° 0 mm 1 mps 718 mmHg 40%
07:00 +4°C° 0 mm 1 mps 719 mmHg 39%
08:00 +5°C° 0 mm 1 mps 719 mmHg 38%
09:00 +7°C° 0 mm 1 mps 719 mmHg 34%
10:00 +8°C° 0 mm 0 mps 719 mmHg 29%
11:00 +10°C° 0 mm 0 mps 719 mmHg 24%
12:00 +11°C° 0 mm 0 mps 719 mmHg 23%
13:00 +13°C° 0 mm 1 mps 719 mmHg 22%
14:00 +14°C° 0 mm 1 mps 719 mmHg 21%
15:00 +14°C° 0 mm 1 mps 719 mmHg 23%
16:00 +13°C° 0 mm 1 mps 719 mmHg 26%
17:00 +13°C° 0 mm 1 mps 719 mmHg 28%
18:00 +10°C° 0 mm 2 mps 719 mmHg 32%
19:00 +9°C° 0 mm 2 mps 719 mmHg 36%
20:00 +7°C° 0 mm 2 mps 719 mmHg 41%
21:00 +7°C° 0 mm 2 mps 719 mmHg 41%
22:00 +7°C° 0 mm 2 mps 719 mmHg 41%
23:00 +6°C° 0 mm 2 mps 719 mmHg 41%

Day after tomorrow, 2 March, Tuesday

Time Temperature Precipitation Wind Pressure Humidity
00:00 +6°C° 0 mm 2 mps 719 mmHg 39%
01:00 +5°C° 0 mm 3 mps 718 mmHg 37%
02:00 +5°C° 0 mm 3 mps 718 mmHg 35%
03:00 +5°C° 0 mm 3 mps 718 mmHg 34%
04:00 +4°C° 0 mm 3 mps 718 mmHg 34%
05:00 +4°C° 0 mm 3 mps 718 mmHg 33%
06:00 +5°C° 0 mm 2 mps 718 mmHg 35%
07:00 +6°C° 0 mm 2 mps 719 mmHg 36%
08:00 +6°C° 0 mm 2 mps 719 mmHg 38%
09:00 +8°C° 0 mm 3 mps 719 mmHg 36%
10:00 +9°C° 0 mm 5 mps 720 mmHg 33%
11:00 +11°C° 0 mm 6 mps 720 mmHg 31%
12:00 +11°C° 0 mm 7 mps 720 mmHg 31%
13:00 +12°C° 0 mm 7 mps 720 mmHg 30%
14:00 +12°C° 0 mm 8 mps 719 mmHg 30%
15:00 +11°C° 0 mm 7 mps 719 mmHg 34%
16:00 +10°C° 0 mm 6 mps 719 mmHg 37%
17:00 +10°C° 0 mm 6 mps 719 mmHg 40%
18:00 +8°C° 0 mm 5 mps 720 mmHg 45%
19:00 +8°C° 0 mm 3 mps 720 mmHg 50%
20:00 +6°C° 0 mm 2 mps 721 mmHg 54%
21:00 +5°C° 0 mm 2 mps 721 mmHg 59%
22:00 +4°C° 0 mm 2 mps 721 mmHg 64%
23:00 +3°C° 0 mm 2 mps 721 mmHg 69%

3 March, Wednesday

Time Temperature Precipitation Wind Pressure Humidity
00:00 +3°C° 0 mm 2 mps 721 mmHg 74%
01:00 +3°C° 0 mm 2 mps 721 mmHg 78%
02:00 +2°C° 0 mm 2 mps 721 mmHg 83%
03:00 +2°C° 0.2 mm 2 mps 721 mmHg 87%
04:00 +3°C° 0.2 mm 1 mps 721 mmHg 91%
05:00 +2°C° 0.2 mm 0 mps 721 mmHg 96%
06:00 +1°C° 0.7 mm 0 mps 721 mmHg 96%
07:00 +2°C° 0.7 mm 1 mps 721 mmHg 96%
08:00 +2°C° 0.7 mm 1 mps 721 mmHg 96%
09:00 +2°C° 0.5 mm 1 mps 721 mmHg 96%
10:00 +2°C° 0.5 mm 1 mps 721 mmHg 96%
11:00 +1°C° 0.5 mm 2 mps 721 mmHg 96%
12:00 +3°C° 0.2 mm 1 mps 721 mmHg 95%
13:00 +3°C° 0.2 mm 1 mps 720 mmHg 95%
14:00 +3°C° 0.2 mm 1 mps 720 mmHg 95%
15:00 +2°C° 0 mm 2 mps 720 mmHg 94%
16:00 +3°C° 0 mm 2 mps 720 mmHg 94%
17:00 +3°C° 0 mm 2 mps 720 mmHg 93%
18:00 +3°C° 0 mm 2 mps 720 mmHg 93%
19:00 +3°C° 0 mm 2 mps 720 mmHg 94%
20:00 +3°C° 0 mm 2 mps 720 mmHg 94%
21:00 +2°C° 0 mm 2 mps 719 mmHg 94%
22:00 +3°C° 0 mm 1 mps 719 mmHg 94%
23:00 +3°C° 0 mm 1 mps 719 mmHg 93%

4 March, Thursday

Time Temperature Precipitation Wind Pressure Humidity
00:00 +2°C° 0 mm 1 mps 719 mmHg 93%
01:00 +2°C° 0 mm 1 mps 718 mmHg 93%
02:00 +2°C° 0 mm 1 mps 718 mmHg 92%
03:00 +2°C° 0 mm 1 mps 718 mmHg 91%
04:00 +2°C° 0 mm 1 mps 718 mmHg 90%
05:00 +2°C° 0 mm 1 mps 718 mmHg 89%
06:00 +2°C° 0 mm 1 mps 718 mmHg 85%
07:00 +3°C° 0 mm 1 mps 718 mmHg 82%
08:00 +3°C° 0 mm 2 mps 718 mmHg 78%
09:00 +6°C° 0 mm 1 mps 718 mmHg 68%
10:00 +8°C° 0 mm 1 mps 718 mmHg 59%
11:00 +11°C° 0 mm 1 mps 717 mmHg 49%
12:00 +12°C° 0 mm 1 mps 717 mmHg 45%
13:00 +13°C° 0 mm 1 mps 716 mmHg 42%
14:00 +14°C° 0 mm 1 mps 716 mmHg 38%
15:00 +14°C° 0 mm 1 mps 716 mmHg 42%
16:00 +13°C° 0 mm 1 mps 716 mmHg 46%
17:00 +13°C° 0 mm 1 mps 716 mmHg 50%
18:00 +12°C° 0.2 mm 2 mps 716 mmHg 54%
19:00 +10°C° 0.2 mm 2 mps 717 mmHg 58%
20:00 +9°C° 0.2 mm 3 mps 717 mmHg 61%
21:00 +9°C° 0 mm 3 mps 717 mmHg 62%
22:00 +8°C° 0 mm 3 mps 717 mmHg 63%
23:00 +8°C° 0 mm 2 mps 717 mmHg 64%

5 March, Friday

Time Temperature Precipitation Wind Pressure Humidity
00:00 +5°C° 1.3 mm 4 mps 718 mmHg 74%
01:00 +3°C° 1.3 mm 6 mps 718 mmHg 84%
02:00 0°C° 1.3 mm 8 mps 718 mmHg 93%
03:00 0°C° 1.5 mm 7 mps 719 mmHg 93%
04:00 -1°C° 1.5 mm 6 mps 720 mmHg 94%
05:00 -1°C° 1.5 mm 5 mps 721 mmHg 94%
06:00 -1°C° 0.7 mm 4 mps 722 mmHg 93%
07:00 0°C° 0.7 mm 4 mps 723 mmHg 92%
08:00 +1°C° 0.7 mm 3 mps 724 mmHg 91%
09:00 +1°C° 0.1 mm 3 mps 724 mmHg 88%
10:00 +2°C° 0.1 mm 2 mps 724 mmHg 86%
11:00 +2°C° 0.1 mm 2 mps 724 mmHg 84%
12:00 +3°C° 0 mm 2 mps 724 mmHg 80%
13:00 +3°C° 0 mm 2 mps 724 mmHg 77%
14:00 +4°C° 0 mm 2 mps 724 mmHg 73%
15:00 +3°C° 0 mm 3 mps 724 mmHg 74%
16:00 +3°C° 0 mm 4 mps 724 mmHg 75%
17:00 +1°C° 0 mm 4 mps 723 mmHg 76%
18:00 +1°C° 0 mm 4 mps 723 mmHg 79%
19:00 0°C° 0 mm 4 mps 723 mmHg 83%
20:00 0°C° 0 mm 3 mps 723 mmHg 86%
21:00 0°C° 0 mm 3 mps 722 mmHg 87%
22:00 -1°C° 0 mm 3 mps 722 mmHg 87%
23:00 -1°C° 0 mm 3 mps 721 mmHg 88%
Show more

We Need Your Consent

Meteoprog and our Service Providers may store and access personal data such as cookies, device identifiers or other similar technologies on your device and process such data to personalise content and ads, as well as provide social media features and to analyse the traffic.

  • Store and/or access information on your device

    Cookies, device identifiers or other information can be stored or accessed on your device for the purposes indicated above.

  • Personalised ads and content, ad and content measurement, audience insights, and products development

    Ads and content can be personalised based on a profile. More data can be added to better personalise ads and content. Ad and content performance can be measured. Insights about the audience who saw the ads and content can be derived. Such data can be used to develop or improve user’s experience, systems and software.

By clicking ‘I Agree’ you will allow the use of indicated cookies, device identifiers, web beacons or other similar technologies. Your settings can be changed in the browser on your device.

For certain purposes, legitimate interests may be relied on, rather than consent. You can read more about this in our Privacy and Cookie Policy.